Other Surface Observations
Issued by NWS

Home | Current Version | Previous Version | Text Only | Print | Product List | Glossary On
Versions: 1 2 3 4 5 6 7 8 9 10 11 12 13 14 15 16 17 18 19 20 21 22 23 24 25 26 27 28 29 30 31 32 33 34 35 36 37 38 39 40 41 42 43 44 45 46 47 48 49 50
000
SXUS52 KTAE 240119
OSOTAE
OSOTAE
North Florida/South Alabama/Southwest Georgia Weather Roundup
National Weather Service Tallahassee Florida
900 PM EDT SAT SEP 23 2017

Note: "fair" indicates few or no clouds below 12,000 feet with no
significant weather and/or obstructions to visibility.

!FLZ017-115-028-034-025-240200
...North Florida...

CITY           SKY/WX    TMP DP  RH WIND       PRES   REMARKS
TALLAHASSEE    CLOUDY    81  69  67 E9        29.94R THUNDER
APALACHICOLA   CLOUDY    81  70  69 E13G21    29.92R
PERRY          MOCLDY    75  71  86 NE3       29.95R
CROSS CITY     CLEAR     78  69  76 NE6       29.98R
JACKSONVILLE   PTCLDY    77  73  87 NE7       29.94S
$$

!FLZ112-006-005-002-011-240200
...Florida Panhandle...

CITY           SKY/WX    TMP DP  RH WIND       PRES   REMARKS
MARIANNA       CLEAR     79  70  74 CALM      29.93R
BONIFAY        NOT AVBL
PANAMA CITY NW FAIR      76  70  82 NE3       29.92R
TYNDALL AFB    CLEAR     79  70  73 CALM      29.93R
TYND DRONE APT FAIR      78  69  73 N5        29.92R
DE FUNIAK SPR  FAIR      76  65  68 NE5       29.95R
EGLIN AFB      CLEAR     82  67  60 N6        29.92R
DESTIN         CLEAR     85  68  56 CALM      29.92R
HURLBURT       CLEAR     79  65  61 CALM      29.91R
CRESTVIEW      CLEAR     74  64  71 CALM      29.96R
PENSACOLA      CLEAR     81  70  69 CALM      29.93R
$$

!ALZ063-066-240200
...South Alabama...

CITY           SKY/WX    TMP DP  RH WIND       PRES   REMARKS
DOTHAN         PTCLDY    74  72  93 N5        29.99R
OZARK CAIRNS   PTCLDY    74  70  89 NE3       29.95S
FT RUCKER HELI MOCLDY    73  73  98 CALM      29.95S
RUCKER HELI 3  FAIR      75  72  91 CALM      29.95S
RUCKER HELI 2  FAIR      75  71  87 CALM      29.95R
FLORALA APT    NOT AVBL
ANDALUSIA      PTCLDY    76  69  79 CALM      29.95S
TROY           PTCLDY    74  73  97 N3        29.97S
EUFALA         FAIR      73  70  90 CALM      29.96S
MOBILE         PTCLDY    73  70  90 W5        29.96
$$

!GAZ120>161-240200
...Southwest and South Central Georgia...

CITY           SKY/WX    TMP DP  RH WIND       PRES   REMARKS
THOMASVILLE    FAIR      77  68  73 NE3       29.97S
BAINBRIDGE     CLEAR     79  72  78 E3        29.95S
MOODY AFB      PTCLDY    74  70  86 NE5       29.96R
VALDOSTA       PTCLDY    75  71  87 NE5       29.96R
MOULTRIE       MOCLDY    77  68  73 E3        29.98R
BLAKELY        CLEAR     73  70  88 CALM      29.96R
ALBANY         CLEAR     80  68  66 E7        29.98R
TIFTON         FAIR      75  70  85 CALM      29.98S
FITZGERALD     FAIR      74  72  93 E3        30.01S
CORDELE        FAIR      82  69  65 E3        30.00R
AMERICUS       FAIR      72  64  78 E5        30.01R
HOMERVILLE     FAIR      72  70  94 CALM      29.98R
$$

!GMZ750-755-770-775-240200
...Coastal and Buoy Obs...

STATION/POSITION TIME  TEMP    WIND        PRES    VSBY  WAVE
                       AIR SEA DIR/SP/G                  HT/PER
                 (UTC) (F)     (DEG/KT/KT) (MB)    (MI)  (FT/S)
KEATON BEACH     0100   77      30/  6/  9 1013.2R
CEDAR KEY        0100   78      40/ 10/ 13 1013.4R
C TOWER          0100   82      80/ 16/ 17 1013.6R
APALACHICOLA BUO 0050   83 82   40/ 16/ 17 1011.7R         2/ 4
PANAMA CITY BUOY 0050   81 82   70/ 14/ 16 1012.0R         3/ 6
MOBILE BUOY      0100   82 84  100/ 10/ 14 1012.9
ORANGE BCH AL BU 0050   82 84   70/  2/  4 1012.9R         2/ 6
$$




USA.gov is the U.S. government's official web portal to all federal, state and local government web resources and services.